Weather History for Dumas, TX

Change the Weather History Date:

Thursday, February 21, 2013

  Actual Average (KBGD) Record (KBGD)
Temperature  
Mean Temperature 22 °F 43 °F  
Max Temperature 32 °F 56 °F 80 °F (1996)
Min Temperature 12 °F 31 °F 7 °F (1978)
Degree Days  
Heating Degree Days 43 22  
Month to date heating degree days 495  
Since 1 July heating degree days 2847  
Cooling Degree Days 0 0  
Month to date cooling degree days 0  
Year to date cooling degree days 0  
Moisture  
Dew Point 23 °F    
Average Humidity 91    
Maximum Humidity 100    
Minimum Humidity 80    
Precipitation  
Precipitation 0.21 in 0.02 in 1.38 in (1971)
Month to date precipitation 0.49  
Year to date precipitation 1.08  
Snow  
Snow 0.00 in - 15.00 in (1971)
Month to date snowfall  
Since 1 July snowfall  
Snow Depth -    
Sea Level Pressure  
Sea Level Pressure 29.70 in    
Wind  
Wind Speed 15 mph (NNE)    
Max Wind Speed 28 mph    
Max Gust Speed 32 mph    
Visibility 6 miles    
Events Fog , Snow    
T = Trace of Precipitation, MM = Missing Value Source: NWS Daily Summary

Daily Weather History Graph

Daily Weather History Graph

Search for Another Location

Airport:

Trip Planner

Search our weather history database for the weather conditions in past years. The results will help you decide how hot, cold, wet, or windy it might be!

Date:

Astronomy

Feb. 21, 2013 Rise Set
Actual Time 7:27 AM CST 6:35 PM CST
Civil Twilight 7:01 AM CST 7:01 PM CST
Nautical Twilight 6:32 AM CST 7:31 PM CST
Astronomical Twilight 6:02 AM CST 8:01 PM CST
Moon 2:57 PM CST (2/21) 4:28 AM CST (2/21)
Length of Visible Light 11h 59m
Length of Day
11h 08m
Waxing Gibbous, 84% of the Moon is Illuminated
Feb 21
Waxing Gibbous
Feb 25
Full
Mar 4
Last Quarter
Mar 11
New
Mar 19
First Quarter

Hourly Weather History & Observations

Time (CST) Temp. Windchill Dew Point Humidity Pressure Visibility Wind Dir Wind Speed Gust Speed Precip Events Conditions
12:15 AM 32.0 °F 19.2 °F 32.0 °F 100% 29.63 in 1.2 mi SE 23.0 mph 27.6 mph N/A   Overcast
12:35 AM 32.0 °F 18.9 °F 32.0 °F 100% 29.59 in 0.2 mi ESE 24.2 mph 32.2 mph N/A Fog Light Freezing Fog
12:55 AM 32.0 °F 19.8 °F 32.0 °F 100% 29.62 in 1.2 mi SE 20.7 mph 27.6 mph N/A   Overcast
1:15 AM 32.0 °F 20.5 °F 32.0 °F 100% 29.60 in 1.2 mi ESE 18.4 mph - N/A   Overcast
1:35 AM 32.0 °F 20.5 °F 32.0 °F 100% 29.64 in 2.5 mi ESE 18.4 mph - N/A   Overcast
1:55 AM 32.0 °F 18.1 °F 30.2 °F 93% 29.64 in 1.0 mi SE 27.6 mph 31.1 mph N/A   Overcast
2:15 AM 30.2 °F 17.1 °F 30.2 °F 100% 29.62 in 10.0 mi ESE 21.9 mph 27.6 mph N/A   Overcast
2:35 AM 30.2 °F 16.8 °F 30.2 °F 100% 29.60 in 7.0 mi ESE 23.0 mph 27.6 mph N/A Snow Light Snow
2:55 AM 30.2 °F 18.1 °F 30.2 °F 100% 29.59 in 7.0 mi ESE 18.4 mph 25.3 mph N/A   Overcast
3:15 AM 30.2 °F 19.3 °F 30.2 °F 100% 29.59 in 2.5 mi SE 15.0 mph 25.3 mph N/A   Overcast
3:35 AM 30.2 °F 20.8 °F 30.2 °F 100% 29.59 in 2.0 mi SE 11.5 mph 20.7 mph N/A   Overcast
3:55 AM 30.2 °F 20.2 °F 30.2 °F 100% 29.60 in 3.0 mi SE 12.7 mph - N/A   Overcast
4:15 AM 30.2 °F 18.9 °F 30.2 °F 100% 29.59 in 5.0 mi SE 16.1 mph - N/A Snow Light Snow
4:35 AM 30.2 °F 20.8 °F 30.2 °F 100% 29.58 in 7.0 mi SE 11.5 mph - N/A Snow Light Snow
4:55 AM 30.2 °F 19.3 °F 28.4 °F 93% 29.56 in 3.0 mi ESE 15.0 mph - N/A Snow Light Snow
5:15 AM 30.2 °F 21.3 °F 28.4 °F 93% 29.55 in 5.0 mi ESE 10.4 mph - N/A Snow Light Snow
5:35 AM 30.2 °F 20.8 °F 28.4 °F 93% 29.55 in 10.0 mi ESE 11.5 mph - N/A   Overcast
5:55 AM 30.2 °F 19.8 °F 28.4 °F 93% 29.55 in 5.0 mi ESE 13.8 mph - N/A Snow Light Snow
6:15 AM 28.4 °F 18.5 °F 28.4 °F 100% 29.55 in 2.0 mi ESE 11.5 mph - 0.01 in Snow Light Snow
6:35 AM 28.4 °F 19.7 °F 28.4 °F 100% 29.54 in 1.0 mi ESE 9.2 mph - 0.02 in   Overcast
6:55 AM 28.4 °F 21.2 °F 28.4 °F 100% 29.54 in 0.5 mi East 6.9 mph - 0.05 in   Overcast
7:15 AM 28.4 °F 24.6 °F 28.4 °F 100% 29.58 in 1.2 mi South 3.5 mph - 0.05 in   Overcast
7:35 AM 28.4 °F 24.6 °F 28.4 °F 100% 29.58 in 0.8 mi ENE 3.5 mph - 0.10 in   Overcast
7:55 AM 28.4 °F 23.3 °F 28.4 °F 100% 29.59 in 0.2 mi NE 4.6 mph - 0.13 in   Overcast
8:15 AM 28.4 °F 21.2 °F 28.4 °F 100% 29.59 in 0.2 mi NE 6.9 mph - 0.01 in   Overcast
8:35 AM 28.4 °F 21.2 °F 28.4 °F 100% 29.60 in 0.2 mi NE 6.9 mph - 0.02 in   Overcast
8:55 AM 28.4 °F 21.2 °F 28.4 °F 100% 29.60 in 0.2 mi NE 6.9 mph - 0.03 in   Overcast
9:15 AM 28.4 °F 20.4 °F 28.4 °F 100% 29.60 in 0.8 mi NNE 8.1 mph - N/A   Overcast
9:35 AM 28.4 °F 20.4 °F 26.6 °F 93% 29.60 in 1.0 mi NNE 8.1 mph - N/A   Overcast
9:55 AM 28.4 °F 20.4 °F 26.6 °F 93% 29.60 in 0.2 mi NNE 8.1 mph - N/A   Overcast
10:15 AM 28.4 °F 22.2 °F 26.6 °F 93% 29.60 in 0.2 mi NNE 5.8 mph - N/A   Overcast
10:35 AM 28.4 °F 21.2 °F 26.6 °F 93% 29.62 in 1.0 mi NNE 6.9 mph - N/A   Overcast
10:55 AM 28.4 °F 19.7 °F 26.6 °F 93% 29.62 in 1.2 mi North 9.2 mph - N/A   Overcast
11:15 AM 28.4 °F 20.4 °F 26.6 °F 93% 29.64 in 2.5 mi North 8.1 mph - N/A   Overcast
11:35 AM 30.2 °F 21.3 °F 26.6 °F 86% 29.66 in 4.0 mi North 10.4 mph - N/A   Overcast
11:55 AM 28.4 °F 18.5 °F 26.6 °F 93% 29.67 in 7.0 mi North 11.5 mph - N/A   Overcast
12:15 PM 26.6 °F 14.7 °F 21.2 °F 80% 29.68 in 5.0 mi North 15.0 mph - N/A   Overcast
12:35 PM 26.6 °F 14.3 °F 21.2 °F 80% 29.70 in 10.0 mi North 16.1 mph - N/A   Overcast
12:55 PM 26.6 °F 13.8 °F 21.2 °F 80% 29.70 in 10.0 mi North 17.3 mph - N/A   Overcast
1:15 PM 26.6 °F 14.7 °F 21.2 °F 80% 29.71 in 10.0 mi North 15.0 mph 21.9 mph N/A   Overcast
1:35 PM 24.8 °F 11.5 °F 19.4 °F 80% 29.72 in 10.0 mi North 17.3 mph - N/A   Overcast
1:55 PM 24.8 °F 10.7 °F 19.4 °F 80% 29.72 in 10.0 mi North 19.6 mph 23.0 mph N/A   Mostly Cloudy
2:15 PM 23.0 °F 8.3 °F 19.4 °F 86% 29.73 in 10.0 mi North 19.6 mph 23.0 mph N/A   Overcast
2:35 PM 23.0 °F 8.7 °F 17.6 °F 80% 29.74 in 10.0 mi North 18.4 mph - N/A   Overcast
2:55 PM 23.0 °F 8.7 °F 17.6 °F 80% 29.76 in 10.0 mi North 18.4 mph - N/A   Overcast
3:15 PM 23.0 °F 9.6 °F 19.4 °F 86% 29.77 in 10.0 mi North 16.1 mph - N/A   Overcast
3:35 PM 23.0 °F 8.7 °F 19.4 °F 86% 29.76 in 10.0 mi North 18.4 mph - N/A   Overcast
3:55 PM 23.0 °F 8.7 °F 19.4 °F 86% 29.77 in 10.0 mi North 18.4 mph - N/A   Overcast
4:35 PM 23.0 °F 11.1 °F 19.4 °F 86% 29.78 in 10.0 mi North 12.7 mph - N/A   Scattered Clouds
4:55 PM 23.0 °F 12.4 °F 17.6 °F 80% 29.79 in 10.0 mi North 10.4 mph - N/A   Scattered Clouds
5:15 PM 21.2 °F 12.6 °F 17.6 °F 86% 29.80 in 10.0 mi North 6.9 mph - N/A   Clear
5:35 PM 19.4 °F 8.6 °F 15.8 °F 86% 29.79 in 10.0 mi North 9.2 mph - N/A   Scattered Clouds
5:55 PM 19.4 °F 6.6 °F 15.8 °F 86% 29.80 in 10.0 mi North 12.7 mph - N/A   Scattered Clouds
6:15 PM 19.4 °F 9.5 °F 15.8 °F 86% 29.82 in 10.0 mi North 8.1 mph - N/A   Scattered Clouds
6:35 PM 17.6 °F - 14.0 °F 86% 29.82 in 10.0 mi Calm Calm - N/A   Clear
6:55 PM 17.6 °F 10.7 °F 14.0 °F 86% 29.84 in 10.0 mi NNW 4.6 mph - N/A   Clear
7:15 PM 15.8 °F 10.2 °F 12.2 °F 86% 29.86 in 10.0 mi WNW 3.5 mph - N/A   Clear
7:35 PM 12.2 °F 4.3 °F 10.4 °F 92% 29.86 in 10.0 mi NW 4.6 mph - N/A   Mostly Cloudy
7:55 PM 15.8 °F 6.1 °F 12.2 °F 86% 29.86 in 10.0 mi NNW 6.9 mph - N/A   Scattered Clouds
8:15 PM 14.0 °F 5.1 °F 12.2 °F 93% 29.87 in 10.0 mi NNW 5.8 mph - N/A   Scattered Clouds
8:35 PM 17.6 °F 8.2 °F 14.0 °F 86% 29.88 in 10.0 mi NNW 6.9 mph - N/A   Overcast
8:55 PM 19.4 °F 10.4 °F 15.8 °F 86% 29.89 in 10.0 mi NNW 6.9 mph - N/A   Overcast
9:15 PM 19.4 °F 8.6 °F 15.8 °F 86% 29.89 in 10.0 mi North 9.2 mph - N/A   Overcast
9:35 PM 19.4 °F 6.0 °F 15.8 °F 86% 29.89 in 10.0 mi North 13.8 mph - N/A   Overcast
9:55 PM 19.4 °F 4.5 °F 15.8 °F 86% 29.89 in 10.0 mi North 17.3 mph - N/A   Overcast
10:15 PM 19.4 °F 5.5 °F 15.8 °F 86% 29.90 in 10.0 mi North 15.0 mph - N/A   Overcast
10:35 PM 19.4 °F 7.9 °F 15.8 °F 86% 29.91 in 10.0 mi NNW 10.4 mph - N/A   Overcast
10:55 PM 21.2 °F 10.9 °F 17.6 °F 86% 29.91 in 10.0 mi NNW 9.2 mph - N/A   Overcast
11:15 PM 23.0 °F 15.8 °F 17.6 °F 80% 29.91 in 10.0 mi NNW 5.8 mph - N/A   Overcast
11:35 PM 23.0 °F 15.8 °F 19.4 °F 86% 29.92 in 10.0 mi NW 5.8 mph - N/A   Overcast
11:55 PM 23.0 °F 18.4 °F 19.4 °F 86% 29.93 in 10.0 mi South 3.5 mph - N/A   Overcast